TimeAEST,TemperatureF,Dew PointF,Humidity,Sea Level PressureIn,VisibilityMPH,Wind Direction,Wind SpeedMPH,Gust SpeedMPH,PrecipitationIn,Events,Conditions,WindDirDegrees,DateUTC
12:00 AM,74,63,60,30.01,,SSE,5.8,,,,,160,2013-10-10 14:00:00
12:00 AM,75.2,62.6,65,30.01,6.2,SSE,5.8,-,N/A,,Scattered Clouds,160,2013-10-10 14:00:00
12:30 AM,75.2,64.4,69,30.01,6.2,SSE,5.8,-,N/A,,Scattered Clouds,160,2013-10-10 14:30:00
1:00 AM,72,63,67,30.00,,SSE,5.8,,,,,160,2013-10-10 15:00:00
1:00 AM,71.6,62.6,73,29.98,6.2,SSE,5.8,-,N/A,,Scattered Clouds,160,2013-10-10 15:00:00
1:30 AM,71.6,62.6,73,29.98,6.2,SSE,4.6,-,N/A,,Partly Cloudy,160,2013-10-10 15:30:00
2:00 AM,71.6,62.6,73,29.95,6.2,South,4.6,-,N/A,,Partly Cloudy,170,2013-10-10 16:00:00
2:30 AM,71.6,62.6,73,29.95,6.2,SSE,4.6,-,N/A,,Partly Cloudy,160,2013-10-10 16:30:00
3:00 AM,74,63,61,29.95,,South,6.9,,,,Overcast,180,2013-10-10 17:00:00
3:00 AM,73.4,62.6,69,29.95,6.2,South,6.9,-,N/A,,Mostly Cloudy,180,2013-10-10 17:00:00
3:30 AM,73.4,62.6,69,29.95,6.2,SSE,8.1,-,N/A,,Mostly Cloudy,160,2013-10-10 17:30:00
4:00 AM,73,62,61,29.95,,South,9.2,,,,,170,2013-10-10 18:00:00
4:00 AM,73.4,62.6,69,29.95,6.2,South,9.2,-,N/A,,Mostly Cloudy,170,2013-10-10 18:00:00
4:30 AM,73.4,60.8,65,29.95,6.2,South,9.2,-,N/A,,Mostly Cloudy,170,2013-10-10 18:30:00
5:00 AM,73.4,60.8,65,29.95,6.2,South,8.1,-,N/A,,Mostly Cloudy,170,2013-10-10 19:00:00
5:30 AM,73.4,60.8,65,29.95,6.2,South,9.2,-,N/A,,Mostly Cloudy,170,2013-10-10 19:30:00
6:00 AM,72,62,62,29.98,,SSE,10.4,,,,Overcast,150,2013-10-10 20:00:00
6:00 AM,71.6,62.6,73,29.98,6.2,SSE,10.4,-,N/A,,Scattered Clouds,150,2013-10-10 20:00:00
6:30 AM,71.6,60.8,69,29.98,6.2,SSE,10.4,-,N/A,,Scattered Clouds,150,2013-10-10 20:30:00
7:00 AM,75,59,49,30.00,,SSE,10.4,,,,,160,2013-10-10 21:00:00
7:00 AM,75.2,59.0,57,29.98,6.2,SSE,10.4,-,N/A,,Partly Cloudy,160,2013-10-10 21:00:00
7:30 AM,77.0,59.0,54,30.01,6.2,SSE,9.2,-,N/A,,Partly Cloudy,150,2013-10-10 21:30:00
8:00 AM,78.8,59.0,51,30.01,6.2,SE,8.1,-,N/A,,Partly Cloudy,140,2013-10-10 22:00:00
8:30 AM,80.6,57.2,45,30.01,6.2,SE,8.1,-,N/A,,Partly Cloudy,130,2013-10-10 22:30:00
9:00 AM,81,56,31,30.02,19,ESE,9.2,,,,Partly Cloudy,120,2013-10-10 23:00:00
9:00 AM,80.6,55.4,42,30.01,6.2,ESE,9.2,-,N/A,,Partly Cloudy,120,2013-10-10 23:00:00
9:30 AM,82.4,55.4,39,30.01,6.2,East,10.4,-,N/A,,Partly Cloudy,100,2013-10-10 23:30:00
10:00 AM,83,56,29,30.01,,ENE,11.5,,,,,60,2013-10-11 00:00:00
10:00 AM,84.2,55.4,37,30.01,6.2,ENE,11.5,-,N/A,,Partly Cloudy,60,2013-10-11 00:00:00
10:30 AM,84.2,57.2,40,29.98,6.2,NE,11.5,-,N/A,,Partly Cloudy,50,2013-10-11 00:30:00
11:00 AM,84.2,55.4,37,29.98,6.2,ENE,13.8,-,N/A,,Partly Cloudy,70,2013-10-11 01:00:00
11:30 AM,84.2,57.2,40,29.95,6.2,NE,12.7,-,N/A,,Partly Cloudy,40,2013-10-11 01:30:00
12:00 PM,84,56,27,29.94,,ENE,15.0,,,,,60,2013-10-11 02:00:00
12:00 PM,84.2,55.4,37,29.95,6.2,ENE,15.0,-,N/A,,Partly Cloudy,60,2013-10-11 02:00:00
12:30 PM,86.0,59.0,40,29.92,6.2,ENE,16.1,-,N/A,,Partly Cloudy,60,2013-10-11 02:30:00
1:00 PM,86.0,60.8,43,29.92,6.2,ENE,17.3,-,N/A,,Partly Cloudy,60,2013-10-11 03:00:00
1:30 PM,86.0,60.8,43,29.89,6.2,ENE,16.1,-,N/A,,Partly Cloudy,60,2013-10-11 03:30:00
2:00 PM,84.2,60.8,45,29.89,6.2,ENE,16.1,-,N/A,,Partly Cloudy,60,2013-10-11 04:00:00
2:30 PM,84.2,60.8,45,29.89,6.2,ENE,16.1,-,N/A,,Partly Cloudy,60,2013-10-11 04:30:00
3:00 PM,84,61,36,29.89,19,ENE,16.1,,,,Partly Cloudy,60,2013-10-11 05:00:00
3:00 PM,84.2,60.8,45,29.89,6.2,ENE,16.1,-,N/A,,Partly Cloudy,60,2013-10-11 05:00:00
3:30 PM,84.2,59.0,42,29.89,6.2,ENE,15.0,-,N/A,,Partly Cloudy,70,2013-10-11 05:30:00
4:00 PM,82.4,57.2,42,29.89,6.2,ENE,15.0,-,N/A,,Partly Cloudy,70,2013-10-11 06:00:00
4:30 PM,82.4,59.0,45,29.89,6.2,East,16.1,-,N/A,,Partly Cloudy,100,2013-10-11 06:30:00
5:00 PM,80.6,57.2,45,29.89,6.2,East,13.8,-,N/A,,Partly Cloudy,90,2013-10-11 07:00:00
5:30 PM,78.8,57.2,47,29.89,6.2,East,12.7,-,N/A,,Partly Cloudy,90,2013-10-11 07:30:00
6:00 PM,78,58,41,29.93,,East,11.5,,,,,100,2013-10-11 08:00:00
6:00 PM,78.8,59.0,51,29.92,6.2,East,11.5,-,N/A,,Partly Cloudy,100,2013-10-11 08:00:00
6:30 PM,77.0,60.8,57,29.92,6.2,SE,8.1,-,N/A,,Partly Cloudy,130,2013-10-11 08:30:00
7:00 PM,76,61,50,29.95,,ESE,6.9,,,,,110,2013-10-11 09:00:00
7:00 PM,75.2,60.8,61,29.95,6.2,ESE,6.9,-,N/A,,Scattered Clouds,110,2013-10-11 09:00:00
7:30 PM,75.2,60.8,61,29.95,6.2,SE,8.1,-,N/A,,Partly Cloudy,130,2013-10-11 09:30:00
8:00 PM,73.4,60.8,65,29.95,-9999.0,SSE,5.8,-,N/A,,Clear,150,2013-10-11 10:00:00
8:30 PM,71.6,60.8,69,29.95,-9999.0,SSE,3.5,-,N/A,,Clear,150,2013-10-11 10:30:00
9:00 PM,72,61,61,29.97,,South,3.5,,,,,180,2013-10-11 11:00:00
9:00 PM,71.6,60.8,69,29.98,-9999.0,South,3.5,-,N/A,,Clear,180,2013-10-11 11:00:00
9:30 PM,73.4,60.8,65,29.98,-9999.0,South,5.8,-,N/A,,Clear,180,2013-10-11 11:30:00
10:00 PM,72,61,59,29.98,,South,4.6,,,,,190,2013-10-11 12:00:00
10:00 PM,73.4,60.8,65,29.98,-9999.0,South,4.6,-,N/A,,Clear,190,2013-10-11 12:00:00
10:30 PM,68.0,62.6,83,29.98,6.2,North,3.5,-,N/A,,Partly Cloudy,350,2013-10-11 12:30:00
11:00 PM,73.4,60.8,65,29.98,6.2,ESE,4.6,-,N/A,,Scattered Clouds,110,2013-10-11 13:00:00
11:30 PM,73.4,60.8,65,29.95,6.2,SSE,6.9,-,N/A,,Scattered Clouds,160,2013-10-11 13:30:00